Weather History for LKPR - January, 2014

Change the Weather History Date:

Monday, January 6, 2014

  Actual Average Record
Temperature  
Mean Temperature 36 °F -  
Max Temperature 43 °F 34 °F 55 °F (1999)
Min Temperature 30 °F 22 °F 12 °F (2002)
Degree Days  
Heating Degree Days 28    
Moisture  
Dew Point 33 °F    
Average Humidity 87    
Maximum Humidity 100    
Minimum Humidity 65    
Precipitation  
Precipitation 0.00 in 0.03 in - ()
Sea Level Pressure  
Sea Level Pressure 30.01 in    
Wind  
Wind Speed 7 mph ()    
Max Wind Speed 12 mph    
Max Gust Speed -    
Visibility 9.9 miles    
Events      
Averages and records for this station are not official NWS values.
T = Trace of Precipitation, MM = Missing Value Source: Averaged Metar Reports

Daily Weather History Graph

Daily Weather History Graph

Search for Another Location

Airport or City:

Trip Planner

Search our weather history database for the weather conditions in past years. The results will help you decide how hot, cold, wet, or windy it might be!

Date:

Astronomy

Jan. 06, 2014 Rise Set
Actual Time 8:01 AM CET 4:16 PM CET
Civil Twilight 7:23 AM CET 4:54 PM CET
Nautical Twilight 6:41 AM CET 5:35 PM CET
Astronomical Twilight 6:02 AM CET 6:15 PM CET
Moon 10:30 AM CET (1/6) 11:11 PM CET (1/6)
Length of Visible Light 9h 31m
Length of Day
8h 15m
Waxing Crescent, 32% of the Moon is Illuminated
Jan 6
Waxing Crescent
Jan 8
First Quarter
Jan 16
Full
Jan 24
Last Quarter
Jan 30
New

Hourly Weather History & Observations

Time (CET) Temp. Windchill Dew Point Humidity Pressure Visibility Wind Dir Wind Speed Gust Speed Precip Events Conditions
12:00 AM 36 °F - 35 °F 94% 30.03 in 7 mi SSW 6.7 mph - -   Scattered Clouds
12:00 AM 35.6 °F 29.2 °F 33.8 °F 93% 29.98 in - SSW 8.1 mph - N/A   Clear
12:30 AM 35.6 °F 29.9 °F 33.8 °F 93% 29.98 in - SSW 6.9 mph - N/A   Clear
1:00 AM 34 °F - 33 °F 96% 30.04 in 5 mi SW 8.9 mph - -   Mist
1:00 AM 33.8 °F 30.8 °F 33.8 °F 100% 29.98 in 5.0 mi WSW 3.5 mph - N/A   Unknown
1:30 AM 35.6 °F 29.2 °F 33.8 °F 93% 29.98 in 6.2 mi SW 8.1 mph - N/A   Partly Cloudy
2:00 AM 35 °F - 33 °F 87% 30.05 in 9 mi SW 8.9 mph - -   Scattered Clouds
2:00 AM 35.6 °F 29.2 °F 33.8 °F 93% 29.98 in - SW 8.1 mph - N/A   Clear
2:30 AM 33.8 °F 27.7 °F 32.0 °F 93% 29.98 in - South 6.9 mph - N/A   Clear
3:00 AM 33 °F - 31 °F 92% 30.07 in 7 mi South 8.9 mph - -   Scattered Clouds
3:00 AM 33.8 °F 27.0 °F 32.0 °F 93% 30.01 in - South 8.1 mph - N/A   Clear
3:30 AM 33.8 °F 26.4 °F 32.0 °F 93% 30.01 in - South 9.2 mph - N/A   Clear
4:00 AM 34 °F - 33 °F 92% 30.06 in 6 mi South 8.9 mph - -   Scattered Clouds
4:00 AM 33.8 °F 26.4 °F 32.0 °F 93% 30.01 in - South 9.2 mph - N/A   Clear
4:30 AM 33.8 °F 25.3 °F 32.0 °F 93% 30.01 in - South 11.5 mph - N/A   Clear
5:00 AM 33 °F - 32 °F 92% 30.07 in 7 mi South 6.7 mph - -   Scattered Clouds
5:00 AM 33.8 °F 26.4 °F 32.0 °F 93% 30.01 in - South 9.2 mph - N/A   Clear
5:30 AM 33.8 °F 25.8 °F 32.0 °F 93% 30.01 in - South 10.4 mph - N/A   Clear
6:00 AM 32 °F - 30 °F 91% 30.07 in 9 mi South 8.9 mph - -   Scattered Clouds
6:00 AM 32.0 °F 23.6 °F 30.2 °F 93% 30.01 in - South 10.4 mph - N/A   Clear
6:30 AM 33.8 °F 27.0 °F 32.0 °F 93% 30.01 in - South 8.1 mph - N/A   Clear
7:00 AM 32 °F - 31 °F 92% 30.07 in 9 mi South 6.7 mph - -  
7:00 AM 32.0 °F 25.6 °F 30.2 °F 93% 30.01 in - South 6.9 mph - N/A   Clear
7:30 AM 32.0 °F 24.8 °F 30.2 °F 93% 30.01 in - South 8.1 mph - N/A   Clear
8:00 AM 30 °F - 29 °F 93% 30.07 in 9 mi South 4.5 mph - -   Clear
8:00 AM 30.2 °F 24.3 °F 30.2 °F 100% 29.98 in - South 5.8 mph - N/A   Clear
8:30 AM 32.0 °F 24.2 °F 30.2 °F 93% 29.98 in - SSE 9.2 mph - N/A   Clear
9:00 AM 32 °F - 30 °F 91% 30.08 in 7 mi South 4.5 mph - -   Clear
9:00 AM 32.0 °F 24.8 °F 30.2 °F 93% 30.01 in - SSE 8.1 mph - N/A   Clear
9:30 AM 33.8 °F 29.6 °F 32.0 °F 93% 30.04 in - South 4.6 mph - N/A   Clear
10:00 AM 35 °F - 33 °F 88% 30.09 in 12 mi South 4.5 mph - -   Clear
10:00 AM 35.6 °F 29.2 °F 32.0 °F 87% 30.04 in - SSE 8.1 mph - N/A   Clear
10:30 AM 37.4 °F 32.1 °F 33.8 °F 87% 30.04 in - South 6.9 mph - N/A   Clear
11:00 AM 37 °F - 34 °F 85% 30.07 in 12 mi South 6.7 mph - -   Clear
11:00 AM 37.4 °F 30.3 °F 33.8 °F 87% 30.01 in - SSE 10.4 mph - N/A   Clear
11:30 AM 39.2 °F 33.6 °F 35.6 °F 87% 30.01 in - SSE 8.1 mph - N/A   Clear
12:00 PM 41 °F - 35 °F 73% 30.04 in 19 mi South 6.7 mph - -   Scattered Clouds
12:00 PM 41.0 °F 37.1 °F 35.6 °F 81% 29.98 in - South 5.8 mph - N/A   Clear
12:30 PM 42.8 °F 39.3 °F 35.6 °F 76% 29.98 in 6.2 mi SE 5.8 mph - N/A   Partly Cloudy
1:00 PM 41 °F - 35 °F 71% 30.03 in 19 mi SSE 6.7 mph - -   Scattered Clouds
1:00 PM 41.0 °F 35.2 °F 35.6 °F 81% 29.98 in 6.2 mi SE 9.2 mph - N/A   Partly Cloudy
1:30 PM 41.0 °F 35.2 °F 33.8 °F 76% 29.98 in - SE 9.2 mph - N/A   Clear
2:00 PM 43 °F - 35 °F 65% 30.03 in 19 mi South 4.5 mph - -   Scattered Clouds
2:00 PM 42.8 °F 38.6 °F 35.6 °F 76% 29.98 in - SSE 6.9 mph - N/A   Clear
2:30 PM 42.8 °F 39.3 °F 35.6 °F 76% 30.01 in - SSE 5.8 mph - N/A   Clear
3:00 PM 41 °F - 35 °F 71% 30.04 in 19 mi SE 6.7 mph - -   Scattered Clouds
3:00 PM 41.0 °F 36.4 °F 33.8 °F 76% 29.98 in - SE 6.9 mph - N/A   Clear
3:30 PM 39.2 °F 34.2 °F 33.8 °F 81% 29.98 in - SE 6.9 mph - N/A   Clear
4:00 PM 39 °F - 35 °F 80% 30.05 in 12 mi South 4.5 mph - -   Scattered Clouds
4:00 PM 39.2 °F 35.0 °F 35.6 °F 87% 30.01 in - SE 5.8 mph - N/A   Clear
4:30 PM 39.2 °F 37.0 °F 35.6 °F 87% 30.01 in - ESE 3.5 mph - N/A   Clear
5:00 PM 39.2 °F 34.2 °F 33.8 °F 81% 30.01 in - SSE 6.9 mph - N/A   Clear
5:30 PM 39.2 °F 33.0 °F 35.6 °F 87% 30.01 in - SSE 9.2 mph - N/A   Clear
6:00 PM 39 °F - 34 °F 74% 30.04 in 12 mi South 6.7 mph - -   Mostly Cloudy
6:00 PM 39.2 °F 34.2 °F 33.8 °F 81% 29.98 in - SSE 6.9 mph - N/A   Clear
6:30 PM 39.2 °F 33.6 °F 33.8 °F 81% 29.98 in - SE 8.1 mph - N/A   Clear
7:00 PM 39 °F - 34 °F 77% 30.03 in 12 mi SE 6.7 mph - -   Mostly Cloudy
7:00 PM 39.2 °F 35.0 °F 33.8 °F 81% 29.98 in - SE 5.8 mph - N/A   Clear
7:30 PM 37.4 °F - 33.8 °F 87% 29.98 in - Calm Calm - N/A   Clear
8:00 PM 37 °F - 34 °F 85% 30.05 in 9 mi 2.2 mph - -   Mostly Cloudy
8:00 PM 37.4 °F - 33.8 °F 87% 29.98 in - Variable 1.2 mph - N/A   Clear
8:30 PM 39.2 °F 34.2 °F 35.6 °F 87% 29.98 in - SE 6.9 mph - N/A   Clear
9:00 PM 38 °F - 35 °F 85% 30.02 in 9 mi SE 8.9 mph - -   Mostly Cloudy
9:00 PM 37.4 °F 31.4 °F 35.6 °F 93% 29.98 in - SE 8.1 mph - N/A   Clear
9:30 PM 39.2 °F 32.5 °F 35.6 °F 87% 29.95 in - SSE 10.4 mph - N/A   Clear
10:00 PM 38 °F - 35 °F 83% 30.00 in 9 mi South 4.5 mph - -   Partly Cloudy
10:00 PM 37.4 °F 31.4 °F 35.6 °F 93% 29.95 in - SSE 8.1 mph - N/A   Clear
10:30 PM 39.2 °F 33.0 °F 33.8 °F 81% 29.95 in - South 9.2 mph - N/A   Clear
11:00 PM 38 °F - 35 °F 83% 30.02 in 9 mi SSW 6.7 mph - -   Scattered Clouds
11:00 PM 37.4 °F 34.9 °F 33.8 °F 87% 29.98 in 6.2 mi SW 3.5 mph - N/A   Partly Cloudy
11:30 PM 39.2 °F 37.0 °F 33.8 °F 81% 29.95 in - SE 3.5 mph - N/A   Clear